2023/01/07 23:32:36+0000,-34.41,-38.84,-30.61,-33.61,-45.62,-46.15
2023/01/07 23:33:28+0000,-34.19,-39.11,-31.34,-33.53,-45.32,-46.30
2023/01/07 23:34:20+0000,-34.78,-39.02,-30.77,-34.60,-46.58,-46.89
2023/01/07 23:35:12+0000,-35.56,-39.02,-31.11,-34.66,-46.48,-47.21
2023/01/07 23:36:04+0000,-35.27,-38.93,-30.64,-34.50,-46.65,-46.74
2023/01/07 23:36:56+0000,-34.78,-38.90,-30.84,-34.78,-46.89,-48.35
2023/01/07 23:37:48+0000,-35.20,-39.42,-30.38,-34.46,-46.75,-48.60
2023/01/07 23:38:40+0000,-34.86,-39.20,-30.94,-34.06,-47.71,-51.00
2023/01/07 23:39:32+0000,-34.49,-39.19,-30.81,-34.22,-46.95,-51.25
2023/01/07 23:40:24+0000,-34.77,-39.59,-30.65,-34.49,-46.78,-48.34
2023/01/07 23:41:24+0000,-33.79,-39.73,-30.45,-34.73,-46.86,-50.78
2023/01/07 23:42:16+0000,-36.06,-39.87,-30.54,-33.71,-46.89,-48.24
2023/01/07 23:43:08+0000,-35.58,-38.73,-30.52,-33.95,-46.53,-47.78
2023/01/07 23:44:00+0000,-34.10,-40.87,-30.11,-33.53,-47.22,-50.40
2023/01/07 23:44:52+0000,-34.75,-39.86,-30.44,-34.43,-45.94,-50.88
2023/01/07 23:45:44+0000,-34.79,-39.54,-30.80,-32.85,-48.67,-50.09
2023/01/07 23:46:36+0000,-34.32,-39.82,-30.74,-33.74,-45.83,-50.82
2023/01/07 23:47:28+0000,-33.92,-40.41,-31.16,-34.24,-44.86,-50.92
2023/01/07 23:48:20+0000,-34.29,-38.58,-30.90,-34.08,-46.63,-50.65
2023/01/07 23:49:12+0000,-35.33,-39.78,-30.45,-34.72,-48.18,-50.31
2023/01/07 23:50:04+0000,-34.51,-40.04,-30.90,-34.64,-45.26,-50.92
2023/01/07 23:51:03+0000,-34.40,-38.36,-30.05,-33.62,-45.75,-50.52
2023/01/07 23:51:55+0000,-34.08,-39.91,-30.28,-32.50,-47.99,-50.55
2023/01/07 23:52:47+0000,-34.60,-39.63,-30.97,-34.48,-48.11,-50.41
2023/01/07 23:53:39+0000,-34.77,-39.64,-29.72,-33.94,-46.23,-50.49
2023/01/07 23:54:31+0000,-35.93,-40.25,-30.15,-34.25,-46.44,-50.93
2023/01/07 23:55:23+0000,-34.41,-40.39,-30.60,-34.80,-48.23,-51.01
2023/01/07 23:56:16+0000,-34.58,-39.27,-30.90,-34.76,-47.77,-50.59
2023/01/07 23:57:08+0000,-35.11,-38.45,-31.05,-33.90,-47.85,-50.93
2023/01/07 23:58:00+0000,-34.26,-40.30,-31.13,-34.04,-47.92,-50.96
2023/01/07 23:58:52+0000,-33.36,-39.17,-30.86,-32.73,-47.75,-50.95
2023/01/07 23:59:44+0000,-33.67,-38.58,-30.78,-34.79,-47.65,-50.46
2023/01/08 00:00:36+0000,-34.02,-39.02,-30.67,-34.26,-46.61,-50.87
2023/01/08 00:01:40+0000,-34.12,-38.27,-30.56,-33.89,-48.54,-50.94
2023/01/08 00:02:32+0000,-34.89,-39.41,-31.19,-33.94,-47.42,-50.60
2023/01/08 00:03:24+0000,-34.91,-39.87,-30.72,-34.45,-48.26,-50.29
2023/01/08 00:04:16+0000,-34.50,-37.79,-30.83,-34.46,-48.47,-50.01
2023/01/08 00:05:08+0000,-35.47,-39.19,-30.99,-34.47,-47.34,-50.94
2023/01/08 00:06:00+0000,-34.84,-38.34,-30.19,-33.86,-47.57,-51.56
2023/01/08 00:06:52+0000,-35.62,-39.90,-30.61,-33.95,-48.72,-50.72
2023/01/08 00:07:44+0000,-34.84,-39.23,-30.53,-33.82,-48.33,-50.31
2023/01/08 00:08:36+0000,-34.33,-39.24,-30.74,-34.95,-46.57,-48.54
2023/01/08 00:09:28+0000,-34.54,-37.38,-30.88,-32.31,-47.04,-49.80
2023/01/08 00:10:20+0000,-34.77,-39.21,-30.30,-32.22,-47.32,-50.43
2023/01/08 00:11:20+0000,-34.28,-38.51,-30.42,-34.72,-47.53,-51.50
2023/01/08 00:12:12+0000,-34.60,-38.38,-30.76,-34.86,-48.45,-51.17
2023/01/08 00:13:04+0000,-34.33,-39.41,-30.64,-35.54,-47.30,-50.50
2023/01/08 00:13:56+0000,-34.41,-39.70,-31.19,-34.49,-48.57,-49.88
2023/01/08 00:14:48+0000,-34.90,-38.31,-30.66,-34.97,-47.27,-50.41
2023/01/08 00:15:40+0000,-35.15,-36.58,-30.65,-35.46,-48.57,-50.24
2023/01/08 00:16:32+0000,-34.36,-39.03,-30.52,-34.43,-48.37,-51.72
2023/01/08 00:17:24+0000,-34.94,-39.15,-31.09,-34.09,-48.88,-51.28
2023/01/08 00:18:16+0000,-34.34,-38.08,-30.60,-35.12,-43.89,-51.78
2023/01/08 00:19:08+0000,-34.24,-37.42,-30.89,-34.76,-46.98,-51.75
2023/01/08 00:20:00+0000,-34.28,-37.63,-30.74,-34.25,-47.29,-51.68
2023/01/08 00:20:59+0000,-34.51,-39.23,-30.53,-34.38,-47.93,-49.75
2023/01/08 00:21:51+0000,-34.51,-39.63,-30.98,-34.89,-47.75,-50.85
2023/01/08 00:22:43+0000,-34.69,-38.63,-30.63,-34.73,-47.44,-50.99
2023/01/08 00:23:35+0000,-35.00,-38.94,-30.39,-34.94,-47.79,-52.10
2023/01/08 00:24:28+0000,-34.42,-37.65,-30.44,-34.53,-47.35,-49.92
2023/01/08 00:25:20+0000,-34.56,-38.10,-30.42,-35.24,-48.75,-50.89
2023/01/08 00:26:12+0000,-35.86,-39.09,-30.46,-34.52,-47.85,-51.83
2023/01/08 00:27:04+0000,-34.41,-38.85,-30.99,-35.63,-48.08,-50.94
2023/01/08 00:27:56+0000,-34.30,-38.71,-30.70,-34.74,-48.53,-50.69
2023/01/08 00:28:48+0000,-34.25,-38.18,-30.20,-34.84,-48.66,-50.68
2023/01/08 00:29:40+0000,-34.97,-37.50,-31.16,-35.42,-48.49,-51.41
2023/01/08 00:30:32+0000,-33.79,-39.42,-30.92,-34.69,-47.75,-51.54
2023/01/08 00:31:31+0000,-34.20,-39.69,-31.25,-35.11,-48.11,-51.28
2023/01/08 00:32:23+0000,-33.83,-39.59,-31.08,-33.98,-48.58,-51.37
2023/01/08 00:33:15+0000,-34.90,-39.33,-31.35,-34.97,-48.65,-51.68
2023/01/08 00:34:07+0000,-35.09,-39.49,-31.29,-35.01,-48.70,-51.31
2023/01/08 00:34:59+0000,-33.16,-39.73,-30.33,-34.15,-48.57,-51.81
2023/01/08 00:35:51+0000,-33.88,-38.17,-31.28,-35.40,-48.49,-52.11
2023/01/08 00:36:43+0000,-34.85,-37.97,-31.02,-34.78,-49.11,-51.77
2023/01/08 00:37:35+0000,-33.73,-40.21,-30.39,-35.21,-48.70,-51.63
2023/01/08 00:38:27+0000,-34.60,-39.96,-31.27,-34.58,-49.17,-52.60
2023/01/08 00:39:19+0000,-34.49,-38.93,-31.11,-34.92,-49.00,-52.46
2023/01/08 00:40:11+0000,-35.09,-39.07,-30.64,-34.64,-49.58,-52.32
2023/01/08 00:41:11+0000,-35.22,-38.75,-30.19,-34.38,-48.40,-52.16
2023/01/08 00:42:03+0000,-34.00,-40.91,-30.07,-35.47,-49.02,-51.89
2023/01/08 00:42:55+0000,-33.12,-40.21,-30.58,-34.88,-49.28,-52.57
2023/01/08 00:43:47+0000,-34.10,-38.96,-30.25,-34.84,-48.73,-52.25
2023/01/08 00:44:39+0000,-34.11,-38.37,-30.24,-34.97,-48.62,-52.01
2023/01/08 00:45:31+0000,-34.52,-38.77,-30.49,-34.61,-48.58,-52.59
2023/01/08 00:46:23+0000,-34.55,-38.73,-30.63,-34.63,-48.50,-51.37
2023/01/08 00:47:15+0000,-34.07,-38.81,-30.84,-34.42,-48.35,-52.02
2023/01/08 00:48:07+0000,-33.92,-39.32,-30.13,-34.92,-47.75,-51.83
2023/01/08 00:48:59+0000,-35.29,-38.75,-30.73,-35.39,-48.02,-52.31
2023/01/08 00:49:51+0000,-34.91,-39.33,-29.94,-35.11,-48.39,-52.59
2023/01/08 00:50:43+0000,-34.23,-37.53,-30.74,-34.93,-47.78,-52.65
2023/01/08 00:51:42+0000,-33.94,-37.68,-30.52,-34.75,-48.25,-52.32
2023/01/08 00:52:34+0000,-34.94,-39.76,-30.63,-34.81,-48.33,-53.98
2023/01/08 00:53:26+0000,-34.82,-40.32,-30.73,-34.58,-48.94,-53.92
2023/01/08 00:54:18+0000,-35.79,-39.51,-30.85,-34.12,-48.80,-54.37
2023/01/08 00:55:10+0000,-32.15,-37.14,-30.89,-34.65,-48.74,-54.53
2023/01/08 00:56:02+0000,-35.25,-38.69,-30.69,-34.12,-48.38,-54.44
2023/01/08 00:56:54+0000,-33.91,-40.13,-30.86,-34.33,-49.07,-53.89
2023/01/08 00:57:46+0000,-34.19,-34.94,-30.70,-35.14,-48.92,-54.05
2023/01/08 00:58:38+0000,-31.32,-39.88,-30.25,-34.32,-48.33,-54.62
2023/01/08 00:59:30+0000,-34.68,-38.18,-30.53,-35.02,-47.99,-54.38
2023/01/08 01:00:23+0000,-34.42,-39.51,-30.67,-35.09,-48.60,-54.09
2023/01/08 01:01:23+0000,-34.60,-39.68,-30.54,-34.85,-48.30,-54.53
2023/01/08 01:02:15+0000,-34.63,-38.83,-30.43,-34.61,-48.36,-54.40
2023/01/08 01:03:07+0000,-33.84,-38.60,-31.02,-34.39,-48.79,-53.79
2023/01/08 01:03:59+0000,-34.65,-39.03,-30.62,-34.83,-48.03,-54.00
2023/01/08 01:04:51+0000,-35.28,-39.92,-30.48,-34.22,-48.33,-54.44
2023/01/08 01:05:43+0000,-34.86,-39.11,-30.93,-35.08,-48.42,-54.33
2023/01/08 01:06:35+0000,-32.51,-40.69,-30.48,-34.94,-48.86,-53.51
2023/01/08 01:07:27+0000,-34.04,-38.98,-30.37,-34.08,-48.54,-53.82
2023/01/08 01:08:19+0000,-33.88,-39.28,-30.63,-35.81,-48.21,-54.17
2023/01/08 01:09:11+0000,-33.39,-39.45,-30.65,-34.63,-48.19,-54.71
2023/01/08 01:10:03+0000,-34.17,-38.57,-30.53,-35.75,-48.52,-53.95
2023/01/08 01:11:03+0000,-34.87,-39.97,-30.44,-34.83,-48.76,-54.10
2023/01/08 01:11:55+0000,-35.40,-39.03,-30.15,-34.44,-48.89,-54.37
2023/01/08 01:12:47+0000,-35.11,-39.63,-30.13,-34.63,-48.17,-54.29
2023/01/08 01:13:39+0000,-34.24,-38.02,-30.20,-34.92,-47.97,-53.44
2023/01/08 01:14:31+0000,-34.99,-38.99,-30.64,-34.97,-48.77,-54.78
2023/01/08 01:15:23+0000,-34.82,-37.35,-30.53,-34.13,-48.56,-53.70
2023/01/08 01:16:15+0000,-35.08,-38.62,-30.94,-35.30,-48.72,-53.89
2023/01/08 01:17:07+0000,-34.17,-39.05,-30.91,-34.74,-48.17,-54.29
2023/01/08 01:17:59+0000,-34.55,-38.65,-30.95,-34.58,-48.59,-54.02
2023/01/08 01:18:51+0000,-34.69,-38.47,-30.47,-34.99,-48.57,-54.22
2023/01/08 01:19:43+0000,-33.13,-40.23,-30.95,-34.58,-47.40,-53.66
2023/01/08 01:20:35+0000,-34.24,-40.40,-31.04,-34.50,-48.50,-53.53
2023/01/08 01:21:35+0000,-34.95,-40.00,-30.76,-34.51,-48.79,-53.91
2023/01/08 01:22:27+0000,-33.77,-39.33,-30.63,-34.59,-48.61,-54.45
2023/01/08 01:23:19+0000,-35.36,-40.18,-30.41,-34.80,-48.73,-54.17
2023/01/08 01:24:11+0000,-34.34,-38.97,-30.83,-34.45,-48.72,-54.12
2023/01/08 01:25:03+0000,-33.91,-39.28,-30.49,-35.13,-47.48,-51.79
2023/01/08 01:25:55+0000,-34.47,-38.40,-30.35,-35.30,-47.47,-52.05
2023/01/08 01:26:47+0000,-35.56,-40.21,-30.00,-34.87,-48.37,-51.94
2023/01/08 01:27:39+0000,-34.02,-40.13,-30.35,-34.51,-48.27,-53.19
2023/01/08 01:28:31+0000,-34.99,-39.74,-30.67,-34.96,-47.58,-51.96
2023/01/08 01:29:23+0000,-33.92,-40.22,-30.15,-35.10,-47.14,-52.38
2023/01/08 01:30:15+0000,-34.47,-37.77,-30.56,-35.47,-48.24,-52.33
2023/01/08 01:31:15+0000,-34.13,-37.96,-30.57,-34.87,-48.05,-52.54
2023/01/08 01:32:07+0000,-34.49,-39.96,-30.82,-34.45,-47.37,-52.57
2023/01/08 01:32:59+0000,-34.71,-38.60,-30.95,-34.66,-47.79,-51.42
2023/01/08 01:33:51+0000,-34.21,-38.57,-30.69,-34.23,-48.50,-51.62
2023/01/08 01:34:43+0000,-33.60,-37.11,-30.98,-35.16,-47.89,-51.79
2023/01/08 01:35:35+0000,-34.03,-39.54,-30.91,-34.73,-46.04,-51.31
2023/01/08 01:36:27+0000,-33.84,-37.64,-30.35,-34.99,-48.02,-53.91
2023/01/08 01:37:19+0000,-34.86,-37.25,-30.79,-35.33,-48.43,-53.91
2023/01/08 01:38:11+0000,-34.84,-37.96,-30.48,-34.72,-47.61,-54.12
2023/01/08 01:39:03+0000,-34.88,-38.89,-30.60,-35.90,-48.17,-53.22
2023/01/08 01:39:55+0000,-34.83,-37.99,-30.38,-34.65,-49.16,-53.59
2023/01/08 01:40:47+0000,-34.43,-36.74,-29.82,-34.74,-45.93,-52.52
2023/01/08 01:41:47+0000,-35.29,-37.67,-30.76,-34.47,-48.74,-53.81
2023/01/08 01:42:39+0000,-32.23,-36.42,-30.44,-34.10,-48.76,-53.41
2023/01/08 01:43:31+0000,-33.62,-38.88,-30.84,-34.15,-48.79,-53.64
2023/01/08 01:44:23+0000,-33.73,-39.06,-29.82,-34.53,-48.98,-53.89
2023/01/08 01:45:15+0000,-35.60,-38.47,-30.53,-34.71,-48.15,-53.47
2023/01/08 01:46:07+0000,-34.33,-38.35,-30.98,-34.42,-49.31,-53.12
2023/01/08 01:46:59+0000,-34.68,-38.57,-31.31,-34.28,-48.50,-53.01
2023/01/08 01:47:51+0000,-34.02,-39.25,-30.62,-34.46,-48.83,-53.67
2023/01/08 01:48:43+0000,-33.11,-37.13,-30.95,-34.42,-48.82,-53.46
2023/01/08 01:49:35+0000,-34.37,-38.60,-30.99,-33.90,-48.74,-53.88
2023/01/08 01:50:27+0000,-34.48,-38.46,-31.15,-33.67,-47.72,-53.80
2023/01/08 01:51:27+0000,-34.13,-38.27,-31.02,-34.16,-48.35,-53.88
2023/01/08 01:52:19+0000,-34.37,-38.24,-30.22,-34.67,-48.73,-53.56
2023/01/08 01:53:11+0000,-34.60,-37.67,-30.71,-34.56,-48.25,-54.24
2023/01/08 01:54:03+0000,-34.45,-38.38,-30.40,-34.26,-48.02,-53.80
2023/01/08 01:54:55+0000,-33.91,-37.62,-30.86,-34.20,-48.01,-53.85
2023/01/08 01:55:47+0000,-34.87,-38.65,-30.69,-34.37,-48.22,-53.67
2023/01/08 01:56:39+0000,-35.22,-38.80,-30.24,-34.43,-48.17,-53.59
2023/01/08 01:57:31+0000,-34.50,-37.32,-30.70,-35.16,-47.62,-53.61
2023/01/08 01:58:23+0000,-33.87,-38.39,-30.45,-34.66,-47.97,-53.53
2023/01/08 01:59:15+0000,-34.34,-38.09,-30.59,-34.15,-47.71,-53.95
2023/01/08 02:00:07+0000,-34.98,-39.87,-30.32,-35.18,-47.89,-53.83
2023/01/08 02:01:07+0000,-34.41,-37.64,-30.51,-34.03,-47.95,-53.25
2023/01/08 02:01:59+0000,-34.33,-36.89,-31.10,-34.25,-48.13,-53.73
2023/01/08 02:02:51+0000,-33.91,-39.00,-30.88,-34.22,-47.97,-53.78
2023/01/08 02:03:43+0000,-33.27,-36.52,-31.21,-36.66,-47.96,-53.55
2023/01/08 02:04:35+0000,-33.15,-37.61,-31.57,-36.61,-48.20,-53.87
2023/01/08 02:05:27+0000,-33.78,-38.06,-31.05,-36.29,-48.12,-54.24
2023/01/08 02:06:19+0000,-34.80,-38.61,-30.95,-36.31,-47.73,-53.96
2023/01/08 02:07:11+0000,-33.56,-37.06,-30.71,-36.49,-48.41,-54.11
2023/01/08 02:08:03+0000,-34.77,-37.98,-30.89,-36.33,-47.94,-53.94
2023/01/08 02:08:55+0000,-33.78,-37.81,-30.86,-36.44,-47.77,-53.04
2023/01/08 02:09:48+0000,-33.33,-36.85,-31.25,-36.60,-47.59,-54.39
2023/01/08 02:10:40+0000,-33.29,-35.17,-30.85,-37.34,-47.66,-53.47
2023/01/08 02:11:39+0000,-33.90,-37.40,-30.49,-37.39,-48.14,-54.17
2023/01/08 02:12:31+0000,-34.49,-39.03,-30.76,-36.43,-48.22,-53.22
2023/01/08 02:13:23+0000,-33.15,-37.23,-30.44,-36.08,-48.16,-54.19
2023/01/08 02:14:15+0000,-34.26,-37.50,-30.88,-36.53,-48.23,-54.19
2023/01/08 02:15:07+0000,-33.78,-39.24,-31.32,-36.91,-47.96,-53.56
2023/01/08 02:15:59+0000,-34.76,-38.36,-30.88,-35.63,-47.99,-53.24
2023/01/08 02:16:51+0000,-34.48,-37.46,-31.59,-36.35,-47.09,-51.50
2023/01/08 02:17:43+0000,-33.89,-36.72,-30.81,-35.48,-47.32,-51.93
2023/01/08 02:18:35+0000,-34.10,-38.64,-30.49,-35.46,-47.77,-51.68
2023/01/08 02:19:27+0000,-33.75,-37.88,-31.64,-36.14,-47.27,-52.70
2023/01/08 02:20:20+0000,-32.82,-34.29,-31.55,-35.69,-47.69,-52.14
2023/01/08 02:21:19+0000,-29.87,-35.19,-31.03,-35.97,-47.60,-52.56
2023/01/08 02:22:11+0000,-34.07,-35.70,-30.85,-35.81,-47.53,-51.50
2023/01/08 02:23:03+0000,-34.73,-37.93,-30.52,-36.26,-47.52,-52.29
2023/01/08 02:23:55+0000,-33.35,-37.96,-31.17,-35.84,-47.92,-51.78
2023/01/08 02:24:47+0000,-31.39,-35.95,-30.75,-34.84,-47.38,-51.61
2023/01/08 02:25:39+0000,-33.46,-38.14,-31.17,-34.71,-48.34,-51.60
2023/01/08 02:26:31+0000,-34.12,-37.90,-29.92,-34.09,-48.42,-52.88
2023/01/08 02:27:23+0000,-34.34,-37.97,-30.62,-34.24,-48.22,-52.53
2023/01/08 02:28:15+0000,-33.98,-37.20,-30.14,-34.58,-48.21,-51.68
2023/01/08 02:29:07+0000,-33.48,-39.31,-29.78,-34.17,-48.08,-52.14
2023/01/08 02:30:00+0000,-34.27,-38.32,-30.20,-34.97,-47.87,-51.80
2023/01/08 02:30:58+0000,-34.21,-39.37,-31.58,-34.69,-47.05,-51.41
2023/01/08 02:31:50+0000,-34.72,-37.53,-30.31,-33.84,-47.17,-51.93
2023/01/08 02:32:42+0000,-32.78,-37.69,-31.06,-35.15,-47.60,-52.50
2023/01/08 02:33:34+0000,-34.62,-37.87,-30.53,-34.45,-48.05,-52.20
2023/01/08 02:34:26+0000,-33.30,-37.42,-30.73,-34.56,-46.76,-52.89
2023/01/08 02:35:18+0000,-34.44,-37.06,-31.22,-34.76,-47.57,-51.89
2023/01/08 02:36:10+0000,-35.43,-38.17,-30.52,-34.94,-47.70,-51.38
2023/01/08 02:37:02+0000,-33.92,-36.64,-30.48,-34.33,-47.24,-51.56
2023/01/08 02:37:54+0000,-33.68,-36.72,-30.83,-34.06,-48.32,-52.47
2023/01/08 02:38:46+0000,-32.16,-38.21,-30.29,-34.40,-47.79,-51.75
2023/01/08 02:39:38+0000,-32.82,-37.29,-30.03,-33.69,-47.98,-52.70
2023/01/08 02:40:31+0000,-34.41,-37.12,-30.45,-34.02,-47.21,-52.44
2023/01/08 02:41:34+0000,-34.34,-39.16,-30.67,-34.61,-47.96,-51.70
2023/01/08 02:42:26+0000,-32.66,-38.12,-30.88,-34.37,-47.29,-52.21
2023/01/08 02:43:18+0000,-32.50,-36.97,-30.62,-35.48,-47.83,-53.21
2023/01/08 02:44:10+0000,-30.83,-36.15,-30.46,-34.17,-48.18,-51.74
2023/01/08 02:45:02+0000,-34.82,-38.05,-29.78,-34.48,-47.08,-52.24
2023/01/08 02:45:54+0000,-34.20,-38.25,-30.36,-34.18,-47.82,-51.78
2023/01/08 02:46:46+0000,-33.97,-36.97,-30.27,-34.55,-46.90,-53.46
2023/01/08 02:47:38+0000,-34.83,-39.17,-30.78,-34.98,-47.42,-52.94
2023/01/08 02:48:30+0000,-35.06,-37.20,-30.89,-34.75,-48.13,-53.68
2023/01/08 02:49:22+0000,-33.11,-37.25,-30.99,-34.64,-47.42,-53.73
2023/01/08 02:50:15+0000,-34.61,-37.82,-30.64,-33.83,-48.09,-52.85
2023/01/08 02:51:14+0000,-30.74,-36.76,-30.63,-34.17,-47.63,-52.96
2023/01/08 02:52:06+0000,-32.73,-38.00,-30.81,-34.01,-47.38,-54.08
2023/01/08 02:52:58+0000,-29.94,-37.79,-30.82,-34.15,-47.60,-52.82
2023/01/08 02:53:50+0000,-34.87,-37.63,-31.13,-34.23,-47.39,-52.56
2023/01/08 02:54:42+0000,-33.24,-36.57,-30.19,-33.82,-47.19,-53.25
2023/01/08 02:55:34+0000,-33.83,-36.83,-31.45,-34.81,-47.11,-53.88
2023/01/08 02:56:26+0000,-34.64,-38.49,-30.70,-34.20,-47.46,-53.30
2023/01/08 02:57:18+0000,-34.08,-37.58,-30.98,-34.23,-47.08,-52.77
2023/01/08 02:58:10+0000,-32.40,-37.27,-30.71,-33.14,-47.25,-53.78
2023/01/08 02:59:02+0000,-34.66,-36.88,-30.50,-34.49,-47.12,-54.13
2023/01/08 02:59:55+0000,-33.91,-37.25,-31.10,-34.15,-47.91,-53.63
2023/01/08 03:00:47+0000,-34.52,-39.20,-30.79,-34.21,-47.63,-53.27
2023/01/08 03:01:47+0000,-34.14,-37.57,-31.46,-34.14,-45.02,-51.57
2023/01/08 03:02:39+0000,-33.06,-37.68,-30.98,-34.58,-45.81,-51.92
2023/01/08 03:03:31+0000,-34.48,-38.71,-31.28,-35.03,-47.14,-54.97
2023/01/08 03:04:23+0000,-34.54,-37.33,-31.39,-34.58,-48.07,-55.34
2023/01/08 03:05:15+0000,-34.08,-38.33,-30.53,-34.85,-48.38,-55.07
2023/01/08 03:06:07+0000,-32.74,-37.49,-31.08,-34.87,-48.38,-54.92
2023/01/08 03:06:59+0000,-34.27,-36.54,-30.82,-34.30,-47.59,-55.89
2023/01/08 03:07:51+0000,-34.69,-36.84,-31.02,-34.62,-47.80,-55.58
2023/01/08 03:08:43+0000,-34.97,-38.09,-30.78,-34.40,-48.35,-54.80
2023/01/08 03:09:35+0000,-34.12,-38.42,-30.75,-34.98,-47.87,-54.94
2023/01/08 03:10:27+0000,-33.73,-37.76,-30.88,-34.31,-47.83,-54.82
2023/01/08 03:11:27+0000,-34.50,-37.71,-30.47,-34.56,-47.53,-55.44
2023/01/08 03:12:19+0000,-33.79,-38.49,-30.93,-33.85,-48.07,-55.11
2023/01/08 03:13:11+0000,-34.03,-37.48,-30.88,-34.65,-48.56,-56.00
2023/01/08 03:14:03+0000,-32.33,-37.77,-30.80,-34.36,-47.91,-55.14
2023/01/08 03:14:55+0000,-32.97,-39.49,-31.04,-33.93,-47.44,-55.21
2023/01/08 03:15:47+0000,-33.28,-38.21,-30.80,-35.01,-47.75,-54.84
2023/01/08 03:16:39+0000,-34.12,-38.12,-30.94,-34.11,-47.91,-55.43
2023/01/08 03:17:31+0000,-31.83,-38.17,-31.11,-34.20,-48.08,-55.56
2023/01/08 03:18:23+0000,-31.77,-38.55,-31.66,-34.88,-48.67,-54.98
2023/01/08 03:19:15+0000,-27.98,-39.49,-30.92,-33.41,-47.68,-54.91
2023/01/08 03:20:07+0000,-33.61,-39.09,-30.57,-34.58,-48.07,-54.99
2023/01/08 03:21:06+0000,-34.84,-38.01,-30.52,-34.46,-47.91,-54.38
2023/01/08 03:21:58+0000,-34.31,-39.01,-30.83,-33.85,-47.97,-55.28
2023/01/08 03:22:50+0000,-30.44,-38.51,-30.82,-34.34,-47.61,-54.70
2023/01/08 03:23:42+0000,-34.38,-37.88,-30.42,-34.19,-47.38,-54.88
2023/01/08 03:24:35+0000,-33.12,-39.54,-30.69,-35.08,-47.80,-55.43
2023/01/08 03:25:27+0000,-33.06,-38.61,-30.70,-34.12,-48.15,-54.58
2023/01/08 03:26:19+0000,-34.26,-37.90,-30.84,-33.95,-47.96,-55.14
2023/01/08 03:27:11+0000,-33.98,-37.71,-30.17,-33.60,-48.11,-55.21
2023/01/08 03:28:03+0000,-34.15,-38.68,-30.53,-34.37,-47.86,-54.86
2023/01/08 03:28:55+0000,-33.17,-39.41,-30.43,-33.70,-48.26,-55.05
2023/01/08 03:29:47+0000,-33.82,-37.30,-30.47,-33.88,-47.70,-55.11
2023/01/08 03:30:39+0000,-34.82,-38.37,-30.56,-34.12,-47.38,-54.50
2023/01/08 03:31:38+0000,-34.50,-38.39,-30.98,-35.34,-49.10,-55.10
2023/01/08 03:32:31+0000,-33.73,-39.32,-30.27,-34.59,-48.45,-55.04
2023/01/08 03:33:23+0000,-34.15,-38.47,-30.70,-34.07,-48.15,-54.90
2023/01/08 03:34:15+0000,-34.70,-38.50,-30.15,-34.91,-48.68,-54.75
2023/01/08 03:35:07+0000,-34.50,-39.99,-29.99,-33.96,-47.77,-52.57
2023/01/08 03:35:59+0000,-34.66,-36.85,-30.11,-33.48,-48.02,-52.15
2023/01/08 03:36:51+0000,-34.58,-38.45,-30.28,-34.62,-45.68,-53.91
2023/01/08 03:37:43+0000,-33.71,-39.07,-30.76,-34.22,-48.11,-52.85
2023/01/08 03:38:35+0000,-32.28,-38.45,-30.43,-34.95,-48.00,-53.38
2023/01/08 03:39:27+0000,-33.41,-39.95,-31.34,-34.73,-47.85,-52.26
2023/01/08 03:40:19+0000,-34.44,-39.10,-30.82,-34.81,-48.43,-52.91
2023/01/08 03:41:18+0000,-33.47,-39.08,-30.77,-33.45,-48.31,-53.35
2023/01/08 03:42:10+0000,-35.08,-39.26,-30.46,-33.65,-48.10,-53.20
2023/01/08 03:43:02+0000,-33.36,-39.09,-30.56,-33.92,-47.92,-52.33
2023/01/08 03:43:54+0000,-32.27,-39.54,-30.62,-34.36,-47.97,-52.42
2023/01/08 03:44:46+0000,-33.59,-38.10,-30.21,-34.38,-48.02,-53.50
2023/01/08 03:45:38+0000,-32.87,-39.17,-30.36,-34.15,-47.73,-52.44
2023/01/08 03:46:30+0000,-31.97,-38.85,-31.58,-33.64,-47.53,-52.65
2023/01/08 03:47:23+0000,-33.91,-39.11,-30.94,-33.94,-48.49,-54.48
2023/01/08 03:48:15+0000,-33.56,-38.74,-30.20,-34.31,-47.05,-52.64
2023/01/08 03:49:07+0000,-34.49,-39.67,-30.61,-34.17,-49.33,-53.21
2023/01/08 03:49:59+0000,-33.57,-39.47,-30.76,-35.20,-48.85,-53.75
2023/01/08 03:50:51+0000,-33.13,-40.18,-30.63,-34.40,-47.90,-50.78
2023/01/08 03:51:50+0000,-32.80,-37.75,-30.22,-34.01,-48.34,-53.29
2023/01/08 03:52:42+0000,-34.08,-38.46,-30.38,-34.91,-48.49,-53.64
2023/01/08 03:53:34+0000,-34.34,-40.20,-30.40,-33.92,-48.49,-52.74
2023/01/08 03:54:26+0000,-32.51,-40.02,-30.48,-34.15,-48.41,-51.58
2023/01/08 03:55:19+0000,-33.43,-37.99,-30.53,-34.07,-48.52,-51.98
2023/01/08 03:56:11+0000,-33.65,-38.26,-29.99,-34.76,-47.97,-53.24
2023/01/08 03:57:03+0000,-33.54,-38.99,-30.59,-33.99,-48.20,-51.42
2023/01/08 03:57:55+0000,-33.03,-40.12,-30.68,-33.63,-47.96,-53.49
2023/01/08 03:58:47+0000,-33.55,-38.10,-30.65,-34.45,-48.76,-52.23
2023/01/08 03:59:39+0000,-31.10,-38.87,-30.62,-34.97,-48.58,-53.23
2023/01/08 04:00:31+0000,-34.01,-39.25,-30.33,-34.42,-49.14,-53.33
2023/01/08 04:01:31+0000,-34.75,-40.07,-30.90,-35.89,-48.61,-53.35
2023/01/08 04:02:23+0000,-32.18,-38.73,-30.76,-34.38,-48.71,-52.41
2023/01/08 04:03:15+0000,-34.35,-39.03,-31.47,-34.26,-48.85,-53.72
2023/01/08 04:04:07+0000,-33.83,-37.75,-31.50,-34.04,-48.54,-53.09
2023/01/08 04:04:59+0000,-33.58,-39.95,-30.98,-35.22,-48.94,-52.90
2023/01/08 04:05:51+0000,-34.32,-38.52,-30.77,-34.43,-49.03,-53.44
2023/01/08 04:06:43+0000,-33.92,-38.10,-30.88,-34.61,-48.51,-52.15
2023/01/08 04:07:35+0000,-33.77,-39.45,-31.20,-34.49,-48.75,-53.23
2023/01/08 04:08:27+0000,-35.09,-38.98,-31.17,-34.24,-48.46,-54.00
2023/01/08 04:09:19+0000,-34.30,-38.70,-30.76,-34.33,-49.31,-53.75
2023/01/08 04:10:11+0000,-33.50,-38.92,-29.99,-34.25,-48.74,-54.05
2023/01/08 04:11:11+0000,-34.25,-38.56,-30.54,-34.11,-48.36,-53.61
2023/01/08 04:12:03+0000,-33.49,-39.72,-30.04,-34.07,-48.15,-53.71
2023/01/08 04:12:55+0000,-33.60,-38.29,-30.39,-34.48,-48.82,-52.57
2023/01/08 04:13:47+0000,-33.28,-38.58,-30.52,-34.38,-48.45,-53.73
2023/01/08 04:14:39+0000,-34.47,-39.96,-30.60,-34.01,-48.57,-53.95
2023/01/08 04:15:31+0000,-33.77,-39.60,-30.42,-34.34,-48.80,-53.26
2023/01/08 04:16:23+0000,-32.95,-38.37,-31.21,-35.34,-48.60,-54.22
2023/01/08 04:17:15+0000,-34.42,-39.12,-30.30,-33.90,-48.57,-54.14
2023/01/08 04:18:07+0000,-34.47,-36.26,-30.37,-35.36,-48.04,-53.73
2023/01/08 04:18:59+0000,-34.27,-39.84,-31.17,-34.48,-47.90,-52.94
2023/01/08 04:19:51+0000,-32.09,-38.56,-30.91,-34.34,-48.74,-53.02
2023/01/08 04:20:43+0000,-33.89,-38.37,-30.58,-35.13,-48.35,-53.19
2023/01/08 04:21:43+0000,-34.14,-38.65,-30.69,-34.32,-47.77,-53.91
2023/01/08 04:22:35+0000,-32.82,-39.86,-30.44,-34.91,-48.10,-54.52
2023/01/08 04:23:27+0000,-34.45,-39.62,-30.47,-34.45,-48.22,-53.38
2023/01/08 04:24:19+0000,-32.53,-37.00,-30.94,-33.75,-48.20,-54.01
2023/01/08 04:25:11+0000,-34.75,-38.03,-30.68,-34.37,-47.75,-54.16
2023/01/08 04:26:03+0000,-32.15,-39.28,-30.40,-34.49,-47.84,-54.17
2023/01/08 04:26:55+0000,-33.64,-40.02,-30.50,-34.77,-48.82,-52.75
2023/01/08 04:27:47+0000,-33.86,-38.78,-30.97,-34.29,-47.48,-54.45
2023/01/08 04:28:39+0000,-33.44,-38.27,-30.57,-34.08,-47.16,-53.12
2023/01/08 04:29:31+0000,-34.04,-39.38,-30.67,-34.02,-48.23,-54.13
2023/01/08 04:30:23+0000,-33.24,-39.57,-31.20,-34.46,-48.64,-54.22
2023/01/08 04:31:23+0000,-33.63,-38.89,-30.60,-34.93,-48.40,-53.43
2023/01/08 04:32:15+0000,-33.83,-37.89,-30.73,-34.41,-48.34,-53.10
2023/01/08 04:33:07+0000,-33.11,-39.29,-30.52,-34.11,-48.30,-53.81
2023/01/08 04:33:59+0000,-32.74,-40.24,-30.90,-34.08,-47.79,-54.08
2023/01/08 04:34:51+0000,-33.04,-39.61,-30.95,-34.31,-47.34,-53.98
2023/01/08 04:35:43+0000,-31.26,-38.53,-30.59,-35.39,-48.46,-52.56
2023/01/08 04:36:35+0000,-32.64,-38.45,-30.76,-34.27,-47.84,-53.57
2023/01/08 04:37:27+0000,-33.99,-39.85,-30.80,-34.70,-47.86,-53.55
2023/01/08 04:38:19+0000,-34.87,-38.65,-31.42,-34.46,-47.99,-54.13
2023/01/08 04:39:11+0000,-33.22,-38.45,-30.62,-34.95,-47.90,-54.59
2023/01/08 04:40:03+0000,-33.60,-38.50,-30.73,-34.43,-47.99,-53.78
2023/01/08 04:41:02+0000,-33.41,-40.12,-30.96,-34.63,-47.81,-54.31
2023/01/08 04:41:54+0000,-33.51,-38.73,-30.67,-33.36,-47.24,-54.13
2023/01/08 04:42:47+0000,-34.33,-39.90,-30.89,-34.31,-47.83,-52.98
2023/01/08 04:43:39+0000,-33.13,-39.23,-30.82,-34.40,-47.78,-53.71
2023/01/08 04:44:31+0000,-33.77,-40.53,-30.93,-33.90,-47.46,-53.84
2023/01/08 04:45:23+0000,-32.73,-38.80,-31.16,-34.49,-47.64,-52.93
2023/01/08 04:46:15+0000,-33.99,-39.79,-30.69,-34.53,-47.78,-54.21